DK5BM-6 Weather Reports


time (UTC)temp
C
wind
direction
speed
KPH
gust
KPH
rain 1hr
cm
rain 24hr
cm
rain mn
cm
humidity
%
barometer
mb
20260506195759 8 155 0.0 11.3 0.03 0.71 0.71 97 1012.8
20260506195659 8 152 0.0 11.3 0.03 0.71 0.71 97 1012.8
20260506195559 8 147 0.0 11.3 0.03 0.71 0.71 97 1012.7
20260506195459 8 148 3.2 11.3 0.03 0.71 0.71 97 1012.6
20260506195359 8 148 4.8 11.3 0.05 0.71 0.71 97 1012.6
20260506195300 8 150 3.2 11.3 0.05 0.71 0.71 97 1012.8
20260506195159 8 149 6.4 11.3 0.05 0.71 0.71 97 1012.8
20260506195059 8 147 6.4 9.7 0.05 0.71 0.71 97 1012.6
20260506194959 8 145 1.6 9.7 0.05 0.71 0.71 98 1012.7
20260506194859 8 144 3.2 9.7 0.05 0.71 0.71 97 1013.0
20260506194501 8 146 1.6 14.5 0.05 0.71 0.71 97 1012.9
20260506194400 8 144 3.2 14.5 0.05 0.71 0.71 97 1012.9
20260506194259 8 145 1.6 14.5 0.05 0.71 0.71 97 1012.9
20260506194159 8 145 3.2 14.5 0.10 0.71 0.71 97 1012.8
20260506194059 8 142 3.2 14.5 0.10 0.71 0.71 97 1012.8
20260506193959 8 141 3.2 14.5 0.10 0.71 0.71 97 1012.8
20260506193900 8 139 1.6 14.5 0.05 0.69 0.69 97 1012.8
20260506193659 8 139 4.8 14.5 0.05 0.69 0.69 97 1012.8
20260506193559 8 144 6.4 14.5 0.05 0.69 0.69 97 1012.7
20260506193459 8 145 3.2 12.9 0.10 0.69 0.69 97 1012.8
20260506193359 8 148 6.4 12.9 0.10 0.69 0.69 97 1012.5
20260506193300 8 147 3.2 11.3 0.10 0.69 0.69 97 1012.5
20260506193059 8 148 1.6 11.3 0.10 0.69 0.69 97 1012.6
20260506192900 8 151 1.6 11.3 0.10 0.69 0.69 97 1012.6
20260506192759 8 156 4.8 11.3 0.10 0.69 0.69 97 1012.5
20260506192700 8 159 6.4 11.3 0.10 0.69 0.69 97 1012.4
20260506192559 8 159 6.4 11.3 0.10 0.69 0.69 97 1012.6
20260506192459 8 163 3.2 11.3 0.13 0.69 0.69 97 1012.5
20260506192359 8 166 3.2 11.3 0.13 0.69 0.69 97 1012.4
20260506192259 8 165 1.6 11.3 0.13 0.69 0.69 97 1012.8
20260506192200 8 166 6.4 11.3 0.13 0.69 0.69 97 1012.5
20260506192059 8 165 3.2 11.3 0.13 0.69 0.69 97 1012.4
20260506191959 8 166 6.4 11.3 0.13 0.69 0.69 97 1012.4
20260506191859 8 166 6.4 11.3 0.13 0.69 0.69 97 1012.6
20260506191800 8 164 3.2 11.3 0.13 0.69 0.69 97 1012.4
20260506191659 8 161 3.2 11.3 0.13 0.69 0.69 97 1012.4
20260506191559 8 156 3.2 11.3 0.13 0.69 0.69 97 1012.7
20260506191501 8 150 3.2 11.3 0.13 0.69 0.69 97 1012.3
20260506191359 8 143 3.2 6.4 0.13 0.69 0.69 97 1012.3
20260506191259 8 142 3.2 6.4 0.13 0.69 0.69 97 1012.3
20260506191200 8 142 3.2 6.4 0.13 0.69 0.69 97 1012.2
20260506191100 8 141 3.2 9.7 0.15 0.69 0.69 97 1012.2
20260506190959 8 138 3.2 9.7 0.15 0.69 0.69 97 1012.3
20260506190859 8 136 3.2 9.7 0.15 0.69 0.69 97 1012.0
20260506190759 8 140 3.2 12.9 0.15 0.69 0.69 97 1012.2
20260506190700 8 146 0.0 12.9 0.15 0.69 0.69 97 1012.3
20260506190559 8 153 3.2 12.9 0.15 0.69 0.69 97 1012.0
20260506190459 8 159 3.2 12.9 0.15 0.69 0.69 97 1012.3
20260506190359 8 164 3.2 12.9 0.15 0.69 0.69 97 1012.2
20260506190300 8 162 3.2 12.9 0.15 0.69 0.69 97 1012.2
20260506190200 9 164 3.2 12.9 0.18 0.69 0.69 97 1012.1
20260506190059 8 167 1.6 12.9 0.18 0.69 0.69 97 1012.3
20260506190001 9 168 0.0 12.9 0.18 0.69 0.69 97 1012.2
20260506185859 9 168 0.0 12.9 0.18 0.69 0.69 97 1011.9
20260506185759 9 166 4.8 12.9 0.18 0.69 0.69 97 1012.1
20260506185700 9 159 4.8 12.9 0.18 0.69 0.69 97 1012.2
20260506185600 9 152 4.8 12.9 0.18 0.69 0.69 97 1012.3
20260506185359 9 139 3.2 12.9 0.15 0.66 0.66 97 1012.1
20260506185259 9 143 1.6 12.9 0.15 0.66 0.66 97 1012.0
20260506185200 9 140 1.6 12.9 0.15 0.66 0.66 97 1012.2
20260506185059 9 131 1.6 12.9 0.15 0.66 0.66 97 1012.2
20260506184959 9 122 1.6 12.9 0.15 0.66 0.66 97 1012.0
20260506184859 9 114 3.2 12.9 0.15 0.66 0.66 97 1012.1
20260506184759 9 106 6.4 12.9 0.15 0.66 0.66 97 1012.1
20260506184501 9 92 1.6 9.7 0.15 0.66 0.66 97 1012.1
20260506184359 9 90 1.6 9.7 0.15 0.66 0.66 97 1011.9
20260506184259 9 90 0.0 9.7 0.18 0.66 0.66 97 1011.9
20260506184200 9 90 3.2 9.7 0.15 0.64 0.64 97 1012.1
20260506184000 9 90 3.2 9.7 0.15 0.64 0.64 97 1011.9
20260506183859 9 90 3.2 9.7 0.15 0.64 0.64 97 1012.0
20260506183759 9 91 3.2 9.7 0.15 0.64 0.64 97 1012.0
20260506183700 9 92 3.2 9.7 0.15 0.64 0.64 97 1011.8
20260506183600 9 94 3.2 9.7 0.15 0.64 0.64 97 1011.8
20260506183459 9 100 1.6 9.7 0.13 0.61 0.61 97 1011.9
20260506183359 9 105 1.6 9.7 0.13 0.61 0.61 97 1011.9
20260506183259 9 107 1.6 9.7 0.13 0.61 0.61 97 1011.9
20260506183200 9 110 1.6 9.7 0.15 0.61 0.61 97 1011.8
20260506183100 9 115 1.6 9.7 0.15 0.61 0.61 97 1011.8
20260506183001 9 121 1.6 9.7 0.15 0.61 0.61 97 1011.6
20260506182859 9 131 3.2 9.7 0.15 0.61 0.61 97 1011.8
20260506182759 9 141 0.0 6.4 0.15 0.61 0.61 97 1011.8
20260506182700 9 146 1.6 6.4 0.15 0.61 0.61 97 1011.8
20260506182600 9 149 3.2 6.4 0.15 0.61 0.61 97 1011.6
20260506182459 9 125 3.2 6.4 0.13 0.56 0.56 97 1011.8
20260506182359 9 112 0.0 6.4 0.13 0.56 0.56 97 1011.7
20260506182259 9 112 0.0 6.4 0.13 0.56 0.56 97 1011.7
20260506182159 9 112 0.0 6.4 0.13 0.56 0.56 97 1011.8
20260506182100 9 117 0.0 6.4 0.13 0.56 0.56 97 1011.7
20260506182000 9 122 0.0 6.4 0.15 0.56 0.56 97 1011.7
20260506181859 9 127 0.0 6.4 0.15 0.56 0.56 97 1011.6
20260506181759 9 128 0.0 6.4 0.15 0.56 0.56 97 1011.6
20260506181659 9 127 0.0 6.4 0.15 0.56 0.56 97 1011.6
20260506181600 9 129 3.2 6.4 0.15 0.56 0.56 97 1011.5
20260506181501 9 134 0.0 3.2 0.15 0.56 0.56 97 1011.4
20260506181300 9 136 0.0 3.2 0.15 0.56 0.56 97 1011.8
20260506181200 9 144 0.0 3.2 0.15 0.56 0.56 97 1011.3
20260506181059 9 147 1.6 3.2 0.13 0.53 0.53 97 1011.7
20260506180859 9 147 1.6 3.2 0.13 0.53 0.53 97 1011.6
20260506180759 9 151 1.6 3.2 0.13 0.53 0.53 97 1011.6
20260506180659 10 154 0.0 3.2 0.15 0.53 0.53 97 1011.3
20260506180600 9 152 0.0 3.2 0.15 0.53 0.53 97 1011.7
20260506180500 9 152 0.0 3.2 0.15 0.53 0.53 97 1011.6
20260506180359 9 152 0.0 3.2 0.15 0.53 0.53 97 1011.7
20260506180259 9 155 0.0 3.2 0.15 0.53 0.53 97 1011.8
20260506180200 9 150 0.0 6.4 0.13 0.51 0.51 97 1011.6
20260506180100 9 145 0.0 6.4 0.13 0.51 0.51 97 1011.6
20260506180002 9 142 0.0 6.4 0.13 0.51 0.51 97 1011.6
20260506175900 9 139 0.0 6.4 0.13 0.51 0.51 97 1011.6
20260506175759 9 137 0.0 6.4 0.13 0.51 0.51 97 1011.5
20260506175659 10 135 0.0 6.4 0.13 0.51 0.51 97 1011.4
20260506175559 10 135 0.0 6.4 0.13 0.51 0.51 97 1011.7
20260506175400 10 135 0.0 6.4 0.13 0.51 0.51 97 1011.4
20260506175300 10 134 0.0 6.4 0.13 0.51 0.51 97 1011.5
20260506175159 10 133 3.2 6.4 0.13 0.51 0.51 96 1011.5
20260506175059 10 131 3.2 6.4 0.13 0.51 0.51 96 1011.2
20260506175000 10 130 3.2 6.4 0.13 0.51 0.51 96 1011.6
20260506174900 10 131 3.2 6.4 0.13 0.51 0.51 96 1011.6
20260506174759 10 133 3.2 6.4 0.13 0.51 0.51 96 1011.5
20260506174659 10 136 3.2 6.4 0.13 0.51 0.51 96 1011.7
20260506174559 10 139 1.6 3.2 0.13 0.51 0.51 96 1011.5
20260506174501 10 139 3.2 3.2 0.13 0.51 0.51 96 1011.5
20260506174359 10 144 0.0 6.4 0.10 0.48 0.48 96 1011.4
20260506174259 10 154 0.0 6.4 0.10 0.48 0.48 96 1011.3
20260506174200 10 161 0.0 6.4 0.13 0.48 0.48 96 1011.3
20260506174100 10 165 0.0 6.4 0.13 0.48 0.48 96 1011.3
20260506173959 10 167 0.0 6.4 0.15 0.48 0.48 96 1011.4
20260506173859 10 167 0.0 6.4 0.15 0.48 0.48 96 1011.6
20260506173800 10 163 0.0 6.4 0.15 0.48 0.48 96 1011.4
20260506173700 10 162 0.0 6.4 0.18 0.48 0.48 96 1011.5
20260506173559 10 158 0.0 6.4 0.18 0.48 0.48 96 1011.5
20260506173459 10 152 3.2 6.4 0.18 0.48 0.48 96 1011.6
20260506173359 10 146 3.2 6.4 0.20 0.48 0.48 96 1011.5
20260506173259 10 137 4.8 6.4 0.20 0.48 0.48 96 1011.3
20260506173201 10 122 3.2 6.4 0.18 0.46 0.46 96 1011.3
20260506173100 10 117 0.0 6.4 0.18 0.46 0.46 96 1011.5
20260506173001 10 115 0.0 6.4 0.18 0.46 0.46 96 1011.3
20260506172900 10 115 0.0 6.4 0.20 0.46 0.46 96 1011.4
20260506172759 10 115 3.2 6.4 0.20 0.46 0.46 96 1011.3
20260506172659 10 115 1.6 6.4 0.20 0.46 0.46 96 1011.3
20260506172459 10 118 1.6 6.4 0.20 0.46 0.46 96 1011.2
20260506172400 10 119 1.6 6.4 0.20 0.46 0.46 96 1011.3
20260506172200 10 129 1.6 6.4 0.20 0.46 0.46 96 1011.3
20260506172059 10 133 3.2 6.4 0.18 0.43 0.43 96 1011.3
20260506171959 10 144 0.0 6.4 0.18 0.43 0.43 96 1011.2
20260506171859 10 151 1.6 6.4 0.18 0.43 0.43 96 1011.2
20260506171800 10 156 1.6 6.4 0.18 0.43 0.43 96 1011.4
20260506171700 10 156 3.2 9.7 0.18 0.46 0.43 96 1011.1
20260506171559 10 154 0.0 9.7 0.18 0.46 0.43 96 1011.3
20260506171501 10 152 0.0 9.7 0.18 0.46 0.43 96 1011.2
20260506171359 10 152 0.0 9.7 0.18 0.46 0.43 96 1011.4
20260506171259 10 151 3.2 9.7 0.18 0.46 0.43 96 1011.3
20260506171059 10 157 3.2 9.7 0.18 0.51 0.43 96 1011.3
20260506171000 10 154 3.2 9.7 0.18 0.51 0.43 96 1011.3
20260506170900 10 149 3.2 9.7 0.18 0.51 0.43 96 1011.4
20260506170759 10 146 0.0 9.7 0.18 0.53 0.43 96 1011.2
20260506170559 10 148 0.0 9.7 0.15 0.51 0.38 96 1011.3
20260506170259 10 122 1.6 9.7 0.15 0.53 0.38 96 1011.4
20260506170159 10 115 1.6 9.7 0.15 0.53 0.38 96 1011.2
20260506170001 10 110 0.0 9.7 0.15 0.53 0.38 96 1011.1
20260506165859 10 113 0.0 9.7 0.15 0.56 0.38 96 1011.3
20260506165800 10 115 1.6 9.7 0.15 0.56 0.38 96 1011.4
20260506165700 10 113 4.8 9.7 0.15 0.61 0.38 96 1011.3
20260506165600 10 111 3.2 9.7 0.15 0.61 0.38 96 1011.2
20260506165459 10 114 3.2 9.7 0.15 0.61 0.38 96 1011.3
20260506165359 10 120 3.2 12.9 0.15 0.64 0.38 96 1011.2
20260506165259 10 128 3.2 12.9 0.15 0.66 0.38 96 1011.2
20260506165200 10 135 3.2 12.9 0.15 0.66 0.38 96 1011.1
20260506165100 10 137 0.0 12.9 0.15 0.66 0.38 96 1011.2
20260506164959 10 137 6.4 12.9 0.15 0.66 0.38 96 1011.3
20260506164859 10 138 6.4 12.9 0.15 0.66 0.38 96 1011.4
20260506164759 10 138 6.4 12.9 0.15 0.66 0.38 96 1011.3
20260506164559 10 139 6.4 12.9 0.15 0.66 0.38 96 1011.2
20260506164501 10 140 6.4 12.9 0.15 0.66 0.38 96 1011.2
20260506164359 10 143 6.4 12.9 0.15 0.66 0.38 95 1011.3
20260506164259 11 138 0.0 3.2 0.13 0.64 0.36 96 1011.2
20260506164200 11 140 1.6 3.2 0.13 0.64 0.36 95 1011.1
20260506164100 11 148 1.6 3.2 0.13 0.64 0.36 95 1011.2
20260506163959 11 150 1.6 3.2 0.10 0.61 0.33 95 1011.4
20260506163859 11 154 0.0 3.2 0.10 0.61 0.33 95 1011.3
20260506163700 11 190 0.0 3.2 0.05 0.56 0.30 95 1011.0
20260506163500 11 190 0.0 3.2 0.05 0.56 0.30 95 1011.1
20260506163359 11 190 0.0 3.2 0.03 0.53 0.28 95 1010.9
20260506163259 11 190 0.0 3.2 0.03 0.53 0.28 95 1011.1
20260506163159 11 204 1.6 3.2 0.03 0.53 0.28 95 1011.1
20260506163100 11 217 1.6 3.2 0.03 0.53 0.28 95 1011.2
20260506163001 11 221 0.0 3.2 0.00 0.51 0.23 95 1011.1
20260506162859 11 222 0.0 3.2 0.00 0.51 0.23 95 1011.2
20260506162759 11 224 0.0 3.2 0.00 0.51 0.23 95 1011.2
20260506162700 11 225 0.0 3.2 0.00 0.51 0.23 95 1011.0
20260506162600 11 225 0.0 3.2 0.00 0.51 0.23 95 1011.1
20260506162459 11 222 0.0 3.2 0.00 0.51 0.23 95 1011.1
20260506162359 11 221 0.0 3.2 0.00 0.51 0.23 95 1011.2
20260506162259 11 223 0.0 6.4 0.00 0.51 0.23 95 1011.0
20260506162200 11 231 1.6 6.4 0.00 0.51 0.23 95 1011.1
20260506162100 11 236 1.6 6.4 0.00 0.51 0.23 95 1011.0
20260506161859 11 243 1.6 6.4 0.00 0.51 0.23 95 1011.0
20260506161759 11 242 0.0 6.4 0.00 0.51 0.23 95 1010.9
20260506161659 11 240 0.0 6.4 0.00 0.51 0.23 95 1011.0
20260506161600 11 236 1.6 6.4 0.00 0.51 0.23 95 1010.8
20260506161501 11 237 0.0 6.4 0.00 0.51 0.23 95 1010.8
20260506161259 11 235 3.2 6.4 0.00 0.51 0.23 95 1010.9
20260506161200 11 232 3.2 6.4 0.00 0.51 0.23 95 1011.2
20260506161100 11 229 3.2 6.4 0.00 0.51 0.23 95 1011.1
20260506160959 11 225 3.2 6.4 0.00 0.51 0.23 95 1010.9
20260506160859 11 221 0.0 6.4 0.00 0.51 0.23 95 1011.1
20260506160759 11 220 0.0 6.4 0.00 0.51 0.23 95 1011.0
20260506160700 11 217 3.2 6.4 0.00 0.51 0.23 94 1011.2
20260506160459 11 219 3.2 6.4 0.00 0.51 0.23 94 1011.0
20260506160359 11 218 3.2 6.4 0.00 0.51 0.23 94 1011.1
20260506160300 11 217 0.0 3.2 0.00 0.51 0.23 94 1010.9
20260506160200 11 216 0.0 3.2 0.00 0.51 0.23 94 1010.9
20260506160100 11 215 0.0 3.2 0.00 0.51 0.23 94 1011.1
20260506160002 11 215 0.0 3.2 0.00 0.51 0.23 94 1011.0
20260506155700 11 217 0.0 3.2 0.00 0.51 0.23 94 1011.1
20260506155559 11 216 0.0 3.2 0.00 0.51 0.23 94 1011.0
20260506155459 11 220 0.0 3.2 0.00 0.51 0.23 94 1011.0
20260506155400 11 222 0.0 3.2 0.00 0.51 0.23 94 1010.9
20260506155200 11 222 0.0 3.2 0.00 0.51 0.23 94 1010.9
20260506155100 11 220 0.0 3.2 0.00 0.51 0.23 94 1010.8
20260506154959 11 220 1.6 3.2 0.00 0.51 0.23 94 1010.9
20260506154859 11 219 0.0 3.2 0.00 0.51 0.23 94 1010.9
20260506154800 11 220 0.0 3.2 0.00 0.51 0.23 94 1010.9
20260506154700 11 222 0.0 3.2 0.00 0.51 0.23 94 1010.7
20260506154600 11 225 1.6 3.2 0.00 0.51 0.23 94 1010.9
20260506154501 11 216 1.6 3.2 0.00 0.51 0.23 94 1010.9
20260506154400 11 208 0.0 3.2 0.00 0.51 0.23 94 1010.8
20260506154300 11 208 0.0 3.2 0.00 0.51 0.23 94 1011.0
20260506154200 11 207 0.0 3.2 0.00 0.51 0.23 93 1010.9
20260506154059 11 206 0.0 3.2 0.00 0.51 0.23 93 1010.7
20260506153959 11 203 0.0 6.4 0.00 0.51 0.23 93 1010.7
20260506153859 11 198 0.0 6.4 0.00 0.51 0.23 93 1010.9
20260506153800 11 196 0.0 6.4 0.00 0.51 0.23 93 1010.9
20260506153700 11 194 0.0 6.4 0.00 0.51 0.23 93 1011.0
20260506153559 11 193 0.0 6.4 0.00 0.51 0.23 93 1010.9
20260506153359 11 192 0.0 6.4 0.00 0.51 0.23 93 1010.8
20260506153300 11 191 0.0 6.4 0.00 0.51 0.23 93 1010.8
20260506153200 11 190 0.0 6.4 0.00 0.51 0.23 93 1010.7
20260506153059 11 189 1.6 6.4 0.00 0.51 0.23 93 1010.8
20260506152900 11 190 3.2 3.2 0.00 0.51 0.23 93 1010.9
20260506152759 11 194 0.0 3.2 0.00 0.51 0.23 93 1010.9
20260506152659 11 200 1.6 3.2 0.00 0.51 0.23 93 1010.8
20260506152600 11 203 0.0 3.2 0.00 0.51 0.23 93 1010.7
20260506152500 11 195 0.0 3.2 0.00 0.51 0.23 93 1010.6
20260506152400 11 197 0.0 3.2 0.00 0.51 0.23 93 1010.7
20260506152159 11 200 0.0 3.2 0.00 0.51 0.23 93 1010.8
20260506151900 11 185 0.0 6.4 0.00 0.51 0.23 93 1010.9
20260506151800 11 195 0.0 6.4 0.03 0.51 0.23 93 1011.0
20260506151700 11 204 0.0 6.4 0.03 0.51 0.23 93 1010.8
20260506151600 11 208 0.0 6.4 0.03 0.51 0.23 93 1010.8
20260506151501 11 212 0.0 6.4 0.03 0.51 0.23 93 1010.8
20260506151359 11 212 0.0 6.4 0.03 0.51 0.23 93 1010.8
20260506151259 11 211 0.0 6.4 0.03 0.51 0.23 93 1010.9
20260506151200 11 211 0.0 6.4 0.03 0.51 0.23 93 1010.9
20260506151000 11 212 0.0 6.4 0.03 0.51 0.23 93 1010.8
20260506150900 11 212 3.2 6.4 0.03 0.51 0.23 93 1010.9
20260506150759 11 214 3.2 6.4 0.03 0.51 0.23 93 1010.9
20260506150659 11 211 1.6 6.4 0.03 0.51 0.23 93 1010.8
20260506150559 11 207 3.2 6.4 0.03 0.51 0.23 93 1010.8
20260506150459 11 203 1.6 6.4 0.03 0.51 0.23 93 1010.7
20260506150400 11 200 0.0 6.4 0.03 0.51 0.23 93 1011.0
20260506150304 11 198 0.0 6.4 0.03 0.51 0.23 93 1010.7
20260506150200 11 195 0.0 6.4 0.03 0.51 0.23 93 1010.7
20260506150059 11 193 0.0 6.4 0.03 0.51 0.23 93 1010.9
20260506150001 11 192 0.0 6.4 0.03 0.51 0.23 93 1010.6
20260506145859 11 190 1.6 6.4 0.03 0.51 0.23 93 1010.5
20260506145700 11 193 0.0 6.4 0.03 0.51 0.23 93 1010.8
20260506145559 11 193 1.6 6.4 0.03 0.51 0.23 93 1010.7
20260506145500 11 194 0.0 6.4 0.03 0.51 0.23 93 1010.6
20260506145400 11 196 0.0 6.4 0.03 0.51 0.23 93 1010.8
20260506145200 11 199 0.0 6.4 0.03 0.51 0.23 93 1010.4
20260506144959 11 185 0.0 9.7 0.03 0.51 0.23 92 1010.4
20260506144900 11 186 0.0 9.7 0.03 0.51 0.23 93 1010.5
20260506144800 11 184 1.6 9.7 0.03 0.51 0.23 93 1010.7
20260506144700 11 184 1.6 9.7 0.03 0.51 0.23 93 1010.4
20260506144559 11 185 1.6 9.7 0.03 0.51 0.23 93 1010.5
20260506144501 11 186 1.6 9.7 0.03 0.51 0.23 93 1010.8
20260506144300 11 188 1.6 9.7 0.05 0.51 0.23 93 1010.6
20260506144100 11 203 3.2 9.7 0.05 0.51 0.23 93 1010.6
20260506143959 11 214 3.2 6.4 0.05 0.51 0.23 93 1010.7
20260506143659 11 223 1.6 6.4 0.05 0.51 0.23 93 1010.7
20260506143559 11 223 1.6 6.4 0.05 0.51 0.23 93 1010.6
20260506143400 11 217 3.2 6.4 0.05 0.51 0.23 93 1010.5
20260506143259 11 218 3.2 6.4 0.05 0.51 0.23 93 1010.7
20260506143159 11 224 3.2 6.4 0.05 0.51 0.23 93 1010.5
20260506143100 11 230 3.2 6.4 0.05 0.51 0.23 93 1010.3
20260506143001 11 234 1.6 6.4 0.05 0.51 0.23 94 1010.3
20260506142900 11 238 0.0 6.4 0.05 0.51 0.23 93 1010.3
20260506142800 11 240 0.0 6.4 0.05 0.51 0.23 94 1010.4
20260506142700 11 234 0.0 11.3 0.05 0.51 0.23 93 1010.5
20260506142459 11 232 1.6 11.3 0.05 0.51 0.23 93 1010.3
20260506142359 11 229 1.6 11.3 0.05 0.51 0.23 93 1010.3
20260506142300 11 228 3.2 11.3 0.05 0.51 0.23 93 1010.4
20260506142200 11 227 3.2 11.3 0.05 0.51 0.23 93 1010.3
20260506142100 11 225 1.6 11.3 0.05 0.51 0.23 93 1010.3
20260506141859 11 222 3.2 11.3 0.03 0.48 0.20 93 1010.3
20260506141759 11 219 3.2 11.3 0.05 0.48 0.20 93 1010.4
20260506141700 11 220 0.0 6.4 0.05 0.48 0.20 93 1010.3
20260506141600 11 222 0.0 6.4 0.10 0.48 0.20 93 1010.3
20260506141502 11 219 1.6 6.4 0.10 0.48 0.20 93 1010.3
20260506141300 11 219 1.6 6.4 0.13 0.48 0.20 93 1010.4
20260506141200 11 220 0.0 6.4 0.15 0.48 0.20 93 1010.3
20260506141059 11 220 4.8 6.4 0.15 0.48 0.20 93 1010.5
20260506140959 11 222 4.8 6.4 0.15 0.48 0.20 93 1010.4
20260506140800 11 217 4.8 11.3 0.15 0.48 0.20 93 1010.3
20260506140700 11 217 1.6 11.3 0.15 0.48 0.20 93 1010.4
20260506140559 11 218 1.6 11.3 0.18 0.48 0.20 93 1010.4
20260506140459 11 217 3.2 11.3 0.18 0.48 0.20 93 1010.3
20260506140400 11 222 3.2 12.9 0.18 0.48 0.20 93 1010.5
20260506140300 11 223 3.2 12.9 0.18 0.48 0.20 93 1010.3
20260506140200 11 221 1.6 12.9 0.18 0.51 0.20 93 1010.3
20260506140001 11 218 1.6 12.9 0.18 0.51 0.20 93 1010.3
20260506135859 11 220 6.4 12.9 0.18 0.51 0.20 93 1010.2
20260506135759 11 223 4.8 12.9 0.18 0.51 0.20 93 1010.2
20260506135700 11 223 4.8 12.9 0.18 0.51 0.20 93 1010.2
20260506135600 11 223 6.4 12.9 0.18 0.51 0.20 93 1010.4
20260506135459 11 223 6.4 12.9 0.18 0.51 0.20 93 1010.3
20260506135259 11 218 4.8 12.9 0.20 0.51 0.20 93 1010.5
20260506135159 11 219 6.4 11.3 0.20 0.51 0.20 93 1010.4
20260506135059 11 225 3.2 9.7 0.20 0.51 0.20 93 1010.5
20260506134900 11 226 3.2 9.7 0.20 0.51 0.20 93 1010.4
20260506134800 11 225 3.2 9.7 0.20 0.51 0.20 93 1010.7
20260506134659 11 226 1.6 9.7 0.20 0.51 0.20 93 1010.2
20260506134559 11 229 1.6 12.9 0.20 0.51 0.20 93 1010.3
20260506134400 11 239 3.2 12.9 0.18 0.48 0.18 92 1010.4
20260506134259 11 243 0.0 14.5 0.18 0.48 0.18 92 1010.6
20260506134159 11 242 1.6 14.5 0.18 0.48 0.18 92 1010.5
20260506134100 11 239 3.2 14.5 0.18 0.48 0.18 92 1010.4
20260506134000 11 237 1.6 14.5 0.18 0.48 0.18 92 1010.5
20260506133659 11 233 3.2 14.5 0.18 0.48 0.18 92 1010.5
20260506133559 11 230 4.8 14.5 0.18 0.48 0.18 92 1010.9
20260506133500 11 224 3.2 14.5 0.18 0.48 0.18 92 1010.5
20260506133300 11 220 3.2 12.9 0.18 0.48 0.18 92 1010.5
20260506133200 11 218 3.2 12.9 0.18 0.48 0.18 92 1010.6
20260506133059 11 218 8.0 14.5 0.18 0.48 0.18 92 1010.7
20260506133001 11 213 8.0 14.5 0.18 0.48 0.18 92 1010.5
20260506132859 11 211 8.0 17.7 0.18 0.48 0.18 92 1010.7
20260506132759 11 215 8.0 17.7 0.18 0.48 0.18 92 1010.7
20260506132700 11 219 8.0 17.7 0.18 0.48 0.18 92 1010.7
20260506132500 11 225 6.4 17.7 0.18 0.48 0.18 92 1010.6
20260506132359 11 232 0.0 17.7 0.18 0.48 0.18 92 1010.5
20260506132259 11 231 4.8 17.7 0.18 0.48 0.18 91 1010.4
20260506132159 11 235 4.8 17.7 0.18 0.51 0.18 91 1010.5
20260506132100 11 239 8.0 17.7 0.18 0.51 0.18 91 1010.7
20260506132000 12 242 8.0 17.7 0.18 0.51 0.18 91 1010.6
20260506131900 12 244 6.4 17.7 0.18 0.51 0.18 91 1010.7
20260506131800 12 241 4.8 17.7 0.15 0.48 0.15 90 1010.5
20260506131700 12 234 9.7 17.7 0.13 0.46 0.13 90 1010.6
20260506131559 12 237 6.4 17.7 0.13 0.46 0.13 90 1010.6
20260506131501 12 232 6.4 17.7 0.10 0.43 0.10 89 1010.6
20260506131359 12 216 8.0 17.7 0.10 0.43 0.10 88 1010.4
20260506131200 12 203 8.0 17.7 0.05 0.38 0.05 87 1010.5
20260506131100 12 187 8.0 17.7 0.05 0.38 0.05 87 1010.4
20260506131000 13 156 0.0 6.4 0.05 0.43 0.05 87 1010.3
20260506130859 12 151 3.2 6.4 0.05 0.43 0.05 85 1010.4
20260506130759 12 136 3.2 6.4 0.05 0.43 0.05 85 1010.1
20260506130700 12 126 3.2 6.4 0.05 0.43 0.05 85 1010.1
20260506130600 13 119 1.6 6.4 0.03 0.38 0.03 86 1010.2
20260506130500 13 106 3.2 6.4 0.03 0.38 0.03 84 1010.1
20260506130359 13 96 0.0 6.4 0.03 0.38 0.03 83 1010.0
20260506130259 13 90 0.0 6.4 0.03 0.43 0.03 83 1010.2
20260506130159 13 88 0.0 6.4 0.03 0.43 0.03 83 1010.0
20260506130100 13 86 0.0 11.3 0.03 0.43 0.03 84 1009.9
20260506130001 13 79 0.0 11.3 0.03 0.43 0.03 83 1010.0
20260506125800 13 67 1.6 11.3 0.03 0.43 0.03 81 1009.9
20260506125700 13 65 1.6 12.9 0.03 0.43 0.03 81 1009.7
20260506125600 13 62 1.6 12.9 0.03 0.43 0.03 81 1009.8
20260506125500 13 58 3.2 17.7 0.03 0.43 0.03 81 1009.8
20260506125359 13 56 3.2 17.7 0.00 0.38 0.00 79 1009.7
20260506125300 13 52 3.2 17.7 0.00 0.38 0.00 79 1009.5
20260506125200 13 50 1.6 17.7 0.00 0.38 0.00 77 1009.6
20260506125000 14 53 3.2 17.7 0.00 0.43 0.00 74 1009.7
20260506124859 14 53 3.2 17.7 0.00 0.43 0.00 74 1009.5
20260506124759 14 53 3.2 17.7 0.00 0.43 0.00 74 1009.5
20260506124700 14 50 6.4 17.7 0.00 0.43 0.00 73 1009.4
20260506124600 15 52 8.0 17.7 0.00 0.43 0.00 72 1009.5
20260506124501 15 57 9.7 17.7 0.00 0.43 0.00 72 1009.4
20260506124400 15 60 6.4 12.9 0.00 0.43 0.00 72 1009.4
20260506124300 15 65 9.7 12.9 0.00 0.43 0.00 71 1009.5
20260506124200 15 71 3.2 12.9 0.00 0.46 0.00 71 1009.3
20260506124059 15 71 6.4 12.9 0.00 0.46 0.00 70 1009.4
20260506124000 15 71 3.2 12.9 0.00 0.46 0.00 70 1009.4
20260506123900 15 72 3.2 12.9 0.00 0.46 0.00 70 1009.4
20260506123700 15 74 8.0 12.9 0.00 0.48 0.00 69 1009.4
20260506123559 15 73 3.2 12.9 0.00 0.48 0.00 69 1009.1
20260506123459 15 71 4.8 12.9 0.00 0.48 0.00 69 1009.5
20260506123400 15 71 4.8 12.9 0.00 0.48 0.00 70 1009.3
20260506123200 15 68 4.8 12.9 0.00 0.51 0.00 69 1009.3
20260506123100 15 68 4.8 12.9 0.00 0.51 0.00 69 1009.2
20260506123001 15 69 3.2 12.9 0.00 0.51 0.00 70 1009.3
20260506122900 15 72 3.2 12.9 0.00 0.51 0.00 70 1009.0
20260506122800 15 74 4.8 12.9 0.00 0.51 0.00 69 1009.2
20260506122700 15 75 6.4 12.9 0.00 0.51 0.00 69 1009.3
20260506122600 15 75 6.4 12.9 0.00 0.53 0.00 69 1009.2
20260506122359 15 68 6.4 12.9 0.00 0.53 0.00 69 1009.2
20260506122300 16 64 4.8 12.9 0.00 0.53 0.00 69 1009.3
20260506122200 16 62 4.8 12.9 0.00 0.53 0.00 69 1009.0
20260506122100 16 59 6.4 12.9 0.00 0.53 0.00 70 1009.3
20260506122000 16 53 3.2 12.9 0.00 0.53 0.00 70 1009.3
20260506121800 16 47 6.4 12.9 0.00 0.53 0.00 69 1009.2
20260506121559 16 47 3.2 12.9 0.00 0.56 0.00 70 1009.2
20260506121501 16 48 3.2 12.9 0.00 0.56 0.00 70 1009.4
20260506121359 15 52 4.8 12.9 0.00 0.56 0.00 71 1009.1
20260506121159 15 54 6.4 11.3 0.00 0.61 0.00 70 1009.3
20260506121100 16 58 3.2 9.7 0.00 0.61 0.00 70 1009.2
20260506121000 16 63 3.2 9.7 0.00 0.64 0.00 70 1009.2
20260506120900 16 67 3.2 9.7 0.00 0.66 0.00 71 1009.2
20260506120659 16 72 3.2 9.7 0.00 0.76 0.00 71 1009.2
20260506120600 16 66 0.0 9.7 0.00 0.76 0.00 70 1008.9
20260506120400 16 55 3.2 9.7 0.00 0.76 0.00 70 1009.3
20260506120259 16 53 3.2 11.3 0.00 0.81 0.00 69 1009.1
20260506120100 16 47 3.2 11.3 0.00 0.81 0.00 70 1009.2
20260506120001 16 47 1.6 11.3 0.00 0.81 0.00 70 1008.9
20260506115859 16 48 3.2 11.3 0.00 0.81 0.00 70 1009.1
20260506115800 16 51 1.6 11.3 0.00 0.81 0.00 71 1009.2
20260506115700 16 53 4.8 11.3 0.00 0.86 0.00 70 1009.1
20260506115600 16 59 4.8 11.3 0.00 0.86 0.00 70 1009.1
20260506115459 16 68 3.2 11.3 0.00 0.89 0.00 71 1009.1
20260506115400 16 72 4.8 12.9 0.00 0.89 0.00 70 1009.3
20260506115300 16 77 4.8 12.9 0.00 0.89 0.00 70 1009.2
20260506115200 16 82 4.8 12.9 0.00 0.94 0.00 70 1009.3
20260506114959 16 85 3.2 12.9 0.00 0.94 0.00 70 1009.1
20260506114859 16 82 3.2 12.9 0.00 0.94 0.00 70 1009.2
20260506114800 16 78 3.2 12.9 0.00 0.94 0.00 70 1009.2
20260506114700 16 76 3.2 12.9 0.00 0.94 0.00 70 1009.2
20260506114502 16 59 6.4 12.9 0.00 0.94 0.00 69 1009.2
20260506114400 16 52 4.8 12.9 0.00 0.94 0.00 68 1009.2
20260506114300 17 41 1.6 6.4 0.00 0.94 0.00 68 1009.3
20260506114200 17 39 1.6 6.4 0.00 0.94 0.00 69 1009.2
20260506114100 17 38 0.0 6.4 0.00 0.94 0.00 70 1009.3
20260506113859 16 35 3.2 6.4 0.00 0.97 0.00 70 1009.3
20260506113759 16 33 1.6 6.4 0.00 0.97 0.00 70 1009.3
20260506113700 16 37 1.6 6.4 0.00 0.97 0.00 69 1009.2
20260506113500 16 90 0.0 6.4 0.00 0.97 0.00 71 1009.5
20260506113400 16 79 0.0 6.4 0.00 0.97 0.00 71 1009.2
20260506113259 16 77 0.0 6.4 0.00 0.97 0.00 71 1009.4
20260506113200 16 76 0.0 6.4 0.00 0.97 0.00 71 1009.2
20260506113001 16 74 0.0 12.9 0.00 0.99 0.00 71 1009.2
20260506112759 16 71 0.0 12.9 0.00 1.02 0.00 70 1009.3
20260506112700 15 69 3.2 12.9 0.00 1.02 0.00 71 1009.3
20260506112600 15 68 3.2 12.9 0.00 1.14 0.00 71 1009.4
20260506112500 15 66 3.2 12.9 0.00 1.14 0.00 71 1009.3
20260506112400 16 67 3.2 12.9 0.00 1.14 0.00 71 1009.3
20260506112259 16 67 3.2 12.9 0.00 1.14 0.00 73 1009.4
20260506112200 15 67 3.2 12.9 0.00 1.14 0.00 72 1009.5
20260506112100 15 63 6.4 12.9 0.00 1.22 0.00 72 1009.2
20260506112000 16 68 6.4 12.9 0.00 1.22 0.00 70 1009.3
20260506111900 16 90 3.2 3.2 0.00 1.27 0.00 67 1009.1
20260506111759 16 97 1.6 3.2 0.00 1.27 0.00 67 1009.2
20260506111659 16 104 0.0 3.2 0.00 1.30 0.00 66 1009.4
20260506111600 16 101 0.0 3.2 0.00 1.30 0.00 66 1009.4
20260506111501 16 101 0.0 3.2 0.00 1.30 0.00 66 1009.4
20260506111359 16 99 0.0 3.2 0.00 1.30 0.00 65 1009.3
20260506111300 16 97 0.0 3.2 0.00 1.30 0.00 66 1009.1
20260506111100 16 94 3.2 6.4 0.00 1.30 0.00 66 1009.4
20260506110900 16 94 0.0 6.4 0.00 1.30 0.00 67 1009.4
20260506110759 16 96 0.0 6.4 0.00 1.30 0.00 67 1009.4
20260506110659 16 102 1.6 6.4 0.00 1.30 0.00 66 1009.5
20260506110600 16 105 0.0 6.4 0.00 1.30 0.00 66 1009.4
20260506110500 16 105 0.0 6.4 0.00 1.30 0.00 67 1009.5
20260506110400 16 104 1.6 6.4 0.00 1.30 0.00 68 1009.5
20260506110259 16 102 1.6 6.4 0.00 1.30 0.00 67 1009.5
20260506110200 16 102 3.2 6.4 0.00 1.30 0.00 67 1009.5
20260506110100 16 102 1.6 6.4 0.00 1.30 0.00 66 1009.6
20260506110002 16 102 1.6 6.4 0.00 1.30 0.00 67 1009.4
20260506105900 16 97 3.2 6.4 0.00 1.30 0.00 67 1009.6
20260506105700 16 90 1.6 6.4 0.00 1.30 0.00 67 1009.5
20260506105559 16 88 0.0 6.4 0.00 1.30 0.00 68 1009.7
20260506105500 16 82 1.6 6.4 0.00 1.30 0.00 69 1009.7
20260506105400 16 75 3.2 9.7 0.00 1.30 0.00 69 1009.6
20260506105300 16 70 3.2 9.7 0.00 1.30 0.00 69 1009.4
20260506105200 16 70 1.6 9.7 0.00 1.30 0.00 69 1009.6
20260506105100 16 73 3.2 9.7 0.00 1.30 0.00 72 1009.8
20260506105000 16 72 3.2 9.7 0.00 1.30 0.00 72 1009.6
20260506104900 16 73 0.0 9.7 0.00 1.30 0.00 72 1009.6
20260506104800 16 80 0.0 9.7 0.00 1.30 0.00 72 1009.5
20260506104700 16 85 0.0 9.7 0.00 1.30 0.00 73 1009.4
20260506104300 16 106 3.2 6.4 0.00 1.30 0.00 72 1009.6
20260506104159 16 109 1.6 6.4 0.00 1.30 0.00 72 1009.6
20260506104100 16 109 1.6 6.4 0.00 1.30 0.00 71 1009.7
20260506104000 16 108 0.0 6.4 0.00 1.30 0.00 71 1009.5
20260506103900 16 108 3.2 6.4 0.00 1.30 0.00 69 1009.7
20260506103700 16 108 3.2 6.4 0.00 1.30 0.00 68 1009.7
20260506103300 17 135 0.0 3.2 0.00 1.30 0.00 66 1009.6
20260506103159 17 135 0.0 3.2 0.00 1.30 0.00 65 1009.6
20260506103100 17 135 0.0 3.2 0.00 1.30 0.00 66 1009.7
20260506103001 17 135 0.0 6.4 0.00 1.30 0.00 66 1009.7
20260506102859 16 127 0.0 6.4 0.00 1.30 0.00 65 1009.8
20260506102800 16 122 0.0 6.4 0.00 1.30 0.00 65 1009.9
20260506102700 16 129 0.0 6.4 0.00 1.30 0.00 65 1009.8
20260506102600 16 129 0.0 6.4 0.00 1.30 0.00 65 1009.7
20260506102459 16 127 0.0 6.4 0.00 1.30 0.00 67 1009.8
20260506102400 16 126 1.6 6.4 0.00 1.30 0.00 67 1009.9
20260506102300 16 126 0.0 6.4 0.00 1.30 0.00 67 1010.1
20260506102100 16 123 1.6 6.4 0.00 1.30 0.00 67 1010.1
20260506101859 16 121 1.6 6.4 0.00 1.30 0.00 67 1009.9
20260506101700 16 117 1.6 6.4 0.00 1.30 0.00 67 1009.9
20260506101600 16 119 1.6 6.4 0.00 1.30 0.00 67 1009.7
20260506101501 16 135 0.0 3.2 0.00 1.30 0.00 66 1009.8
20260506101300 16 147 0.0 3.2 0.00 1.30 0.00 65 1009.8
20260506101159 16 195 0.0 3.2 0.00 1.30 0.00 66 1009.7
20260506101100 16 227 1.6 3.2 0.00 1.30 0.00 64 1009.8
20260506101000 16 244 1.6 3.2 0.00 1.30 0.00 66 1009.7
20260506100800 16 247 0.0 6.4 0.00 1.30 0.00 65 1009.8
20260506100659 17 227 0.0 6.4 0.00 1.30 0.00 66 1009.8
20260506100600 17 219 0.0 6.4 0.00 1.30 0.00 66 1009.8
20260506100400 16 179 0.0 9.7 0.00 1.30 0.00 65 1009.9
20260506100300 16 170 0.0 9.7 0.00 1.30 0.00 66 1009.9
20260506100200 16 163 3.2 9.7 0.00 1.30 0.00 65 1009.8
20260506100100 16 155 3.2 9.7 0.00 1.30 0.00 65 1010.0
20260506100002 16 150 1.6 9.7 0.00 1.30 0.00 66 1010.0
20260506095600 16 141 1.6 9.7 0.00 1.30 0.00 64 1009.9
20260506095400 16 138 3.2 9.7 0.00 1.30 0.00 64 1009.8
20260506095300 16 131 0.0 6.4 0.00 1.30 0.00 66 1009.6
20260506095200 16 131 0.0 6.4 0.00 1.30 0.00 67 1009.9
20260506094959 16 128 0.0 6.4 0.00 1.30 0.00 69 1009.9
20260506094900 16 130 1.6 6.4 0.00 1.30 0.00 69 1009.9
20260506094800 16 129 1.6 6.4 0.00 1.30 0.00 69 1010.0
20260506094700 16 126 1.6 6.4 0.00 1.30 0.00 68 1009.8
20260506094601 16 124 1.6 6.4 0.00 1.30 0.00 68 1009.8
20260506094501 16 150 3.2 6.4 0.00 1.30 0.00 68 1009.9
20260506094300 17 235 0.0 3.2 0.00 1.30 0.00 69 1010.1
20260506094100 17 223 0.0 3.2 0.00 1.30 0.00 71 1010.1
20260506094000 16 209 0.0 3.2 0.00 1.30 0.00 69 1010.2
20260506093900 16 201 0.0 3.2 0.00 1.30 0.00 69 1009.9
20260506093759 16 192 0.0 3.2 0.00 1.30 0.00 68 1009.8
20260506093600 16 181 0.0 3.2 0.00 1.30 0.00 69 1009.7
20260506093500 16 170 0.0 3.2 0.00 1.30 0.00 70 1009.9
20260506093300 16 137 0.0 6.4 0.00 1.30 0.00 70 1009.8
20260506093059 15 120 0.0 6.4 0.00 1.30 0.00 71 1009.9
20260506093001 16 112 0.0 6.4 0.00 1.30 0.00 70 1009.9
20260506092900 16 105 0.0 6.4 0.00 1.30 0.00 70 1010.0
20260506092759 16 98 1.6 6.4 0.00 1.30 0.00 71 1010.0
20260506092500 15 78 0.0 6.4 0.00 1.30 0.00 72 1010.1
20260506092400 15 75 1.6 6.4 0.00 1.30 0.00 74 1010.0
20260506092300 15 75 4.8 6.4 0.00 1.30 0.00 73 1009.8
20260506092200 16 79 0.0 6.4 0.00 1.30 0.00 74 1009.9
20260506092100 16 88 0.0 6.4 0.00 1.30 0.00 74 1010.1
20260506092000 15 89 0.0 6.4 0.00 1.30 0.00 73 1010.0
20260506091900 15 89 0.0 6.4 0.00 1.30 0.00 73 1009.9
20260506091800 15 89 1.6 6.4 0.00 1.30 0.00 73 1010.0
20260506091700 15 100 4.8 6.4 0.00 1.30 0.00 74 1010.1
20260506091600 16 108 0.0 6.4 0.00 1.30 0.00 74 1010.1
20260506091501 15 110 0.0 6.4 0.00 1.30 0.00 73 1009.8
20260506091400 15 120 0.0 6.4 0.00 1.30 0.00 73 1009.8
20260506091200 16 122 4.8 6.4 0.00 1.30 0.00 72 1010.0
20260506091100 16 127 3.2 6.4 0.00 1.30 0.00 71 1010.0
20260506090900 16 125 0.0 6.4 0.00 1.30 0.00 72 1009.9
20260506090800 16 125 0.0 6.4 0.00 1.30 0.00 72 1010.0
20260506090600 16 133 4.8 6.4 0.00 1.30 0.00 70 1010.0
20260506090500 17 135 1.6 6.4 0.00 1.30 0.00 68 1009.9
20260506090400 16 125 0.0 6.4 0.00 1.30 0.00 67 1010.2
20260506090300 16 124 0.0 6.4 0.00 1.30 0.00 68 1010.0
20260506090200 16 113 1.6 6.4 0.00 1.30 0.00 68 1009.9
20260506090100 15 105 1.6 6.4 0.00 1.30 0.00 68 1010.2
20260506085900 15 103 0.0 6.4 0.00 1.30 0.00 69 1010.1
20260506085800 15 103 1.6 6.4 0.00 1.30 0.00 71 1009.8
20260506085700 15 94 0.0 6.4 0.00 1.30 0.00 72 1010.1
20260506085600 15 87 0.0 6.4 0.00 1.30 0.00 72 1009.7
20260506085500 15 84 0.0 6.4 0.00 1.30 0.00 72 1010.0
20260506085259 15 120 0.0 3.2 0.00 1.30 0.00 72 1009.9
20260506085200 15 157 0.0 3.2 0.00 1.30 0.00 72 1009.9
20260506085100 15 186 0.0 3.2 0.00 1.30 0.00 73 1010.0
20260506085000 15 197 0.0 3.2 0.00 1.30 0.00 72 1010.1
20260506084900 15 200 0.0 3.2 0.00 1.30 0.00 72 1009.9
20260506084800 15 209 0.0 3.2 0.00 1.30 0.00 73 1010.1
20260506084600 15 202 0.0 3.2 0.00 1.30 0.00 74 1010.1
20260506084502 15 201 3.2 3.2 0.00 1.30 0.00 75 1010.1
20260506084400 15 207 0.0 3.2 0.00 1.30 0.00 76 1009.9
20260506084300 15 204 0.0 3.2 0.00 1.30 0.00 75 1009.8
20260506084159 15 203 0.0 3.2 0.00 1.30 0.00 76 1010.0
20260506084000 15 190 0.0 3.2 0.00 1.30 0.00 75 1009.9
20260506083900 15 186 0.0 3.2 0.00 1.30 0.00 75 1010.0
20260506083800 15 162 0.0 3.2 0.00 1.30 0.00 76 1009.9
20260506083700 15 121 0.0 3.2 0.00 1.30 0.00 76 1009.9
20260506083500 15 98 0.0 6.4 0.00 1.30 0.00 76 1009.9
20260506083400 14 99 0.0 6.4 0.00 1.30 0.00 76 1010.2
20260506083300 14 99 0.0 6.4 0.00 1.30 0.00 76 1010.1
20260506083100 14 99 0.0 6.4 0.00 1.30 0.00 76 1009.9
20260506083001 14 99 0.0 6.4 0.00 1.30 0.00 78 1009.9
20260506082900 13 99 0.0 6.4 0.00 1.30 0.00 78 1010.0
20260506082800 13 105 0.0 6.4 0.00 1.30 0.00 78 1010.0
20260506082700 13 109 0.0 6.4 0.00 1.30 0.00 79 1009.9
20260506082600 14 117 3.2 6.4 0.00 1.30 0.00 79 1010.1
20260506082400 14 135 0.0 3.2 0.00 1.30 0.00 79 1009.9
20260506082300 13 135 0.0 3.2 0.00 1.30 0.00 79 1010.0
20260506082159 14 135 0.0 3.2 0.00 1.30 0.00 80 1010.0
20260506082100 14 142 0.0 3.2 0.00 1.30 0.00 80 1009.9
20260506082000 13 146 0.0 3.2 0.00 1.30 0.00 80 1009.9
20260506081900 13 149 0.0 3.2 0.00 1.30 0.00 80 1009.9
20260506081800 13 151 0.0 3.2 0.00 1.30 0.00 81 1010.0
20260506081502 13 152 0.0 3.2 0.00 1.30 0.00 82 1010.1
20260506081400 13 152 0.0 3.2 0.00 1.30 0.00 82 1010.3
20260506081300 13 152 0.0 3.2 0.00 1.30 0.00 82 1010.1
20260506081200 13 152 0.0 3.2 0.00 1.30 0.00 82 1010.0
20260506081059 13 140 0.0 3.2 0.00 1.30 0.00 82 1009.9
20260506081000 13 124 0.0 3.2 0.00 1.30 0.00 82 1010.1
20260506080900 13 90 0.0 3.2 0.00 1.30 0.00 82 1010.2
20260506080800 13 54 0.0 3.2 0.00 1.30 0.00 83 1010.3
20260506080700 13 52 0.0 6.4 0.00 1.30 0.00 83 1010.1
20260506080600 13 59 0.0 6.4 0.00 1.30 0.00 83 1009.9
20260506080500 13 64 0.0 6.4 0.00 1.30 0.00 84 1010.2
20260506080400 13 68 0.0 6.4 0.00 1.30 0.00 84 1010.3
20260506080300 13 70 0.0 6.4 0.00 1.30 0.00 84 1010.3
20260506073500 13 72 0.0 9.7 0.00 1.30 0.00 84 1010.1
20260506073400 13 72 0.0 9.7 0.00 1.30 0.00 84 1010.1
20260506073300 12 72 0.0 9.7 0.00 1.30 0.00 84 1010.0
20260506073200 12 71 3.2 9.7 0.00 1.30 0.00 84 1010.2
20260506073100 12 68 3.2 9.7 0.00 1.30 0.00 85 1010.2
20260506073002 12 74 3.2 6.4 0.00 1.30 0.00 85 1009.9
20260506072900 12 75 3.2 6.4 0.00 1.30 0.00 86 1010.2
20260506072800 12 78 4.8 6.4 0.00 1.30 0.00 86 1010.2
20260506072700 12 76 1.6 6.4 0.00 1.30 0.00 86 1010.2
20260506072600 12 81 1.6 6.4 0.00 1.30 0.00 86 1010.1
20260506072501 12 83 1.6 6.4 0.00 1.30 0.00 86 1010.2
20260506072400 12 90 0.0 3.2 0.00 1.30 0.00 87 1010.2
20260506072100 12 89 0.0 6.4 0.00 1.30 0.00 88 1010.5
20260506072000 12 89 0.0 6.4 0.00 1.30 0.00 88 1010.3
20260506071900 12 89 0.0 6.4 0.00 1.30 0.00 88 1010.4
20260506071800 11 89 0.0 6.4 0.00 1.30 0.00 88 1010.2
20260506071700 11 89 3.2 6.4 0.00 1.30 0.00 88 1010.1
20260506071600 11 89 3.2 6.4 0.00 1.30 0.00 88 1010.2
20260506071502 11 89 3.2 6.4 0.00 1.30 0.00 88 1010.2
20260506071400 11 89 3.2 6.4 0.00 1.30 0.00 88 1010.1
20260506071300 11 88 3.2 6.4 0.00 1.30 0.00 88 1010.0
20260506071200 12 89 0.0 6.4 0.00 1.30 0.00 89 1010.1
20260506071100 11 90 0.0 3.2 0.00 1.30 0.00 88 1010.2
20260506071000 11 90 0.0 3.2 0.00 1.30 0.00 88 1010.1
20260506070900 12 0 0.0 0.0 0.00 1.30 0.00 89 1010.2
20260506070800 12 158 0.0 3.2 0.00 1.30 0.00 89 1009.9
20260506070659 12 158 0.0 3.2 0.00 1.30 0.00 89 1010.1
20260506070600 12 161 0.0 3.2 0.00 1.30 0.00 89 1010.2
20260506070500 11 162 0.0 3.2 0.00 1.30 0.00 89 1010.1
20260506070300 11 157 0.0 3.2 0.00 1.30 0.00 89 1010.1
20260506062400 11 0 0.0 0.0 0.00 1.30 0.00 89 1010.3
20260506062200 11 0 0.0 0.0 0.00 1.30 0.00 89 1010.2
20260506062101 11 0 0.0 0.0 0.00 1.30 0.00 89 1010.2
20260506061900 11 0 0.0 0.0 0.00 1.30 0.00 89 1010.3
20260506061800 11 0 0.0 0.0 0.00 1.30 0.00 89 1010.2
20260506061700 11 0 0.0 0.0 0.00 1.30 0.00 89 1010.3
20260506061600 11 0 0.0 0.0 0.00 1.30 0.00 89 1010.2
20260506061400 11 0 0.0 0.0 0.00 1.30 0.00 90 1010.0
20260506061300 11 0 0.0 0.0 0.00 1.30 0.00 89 1010.2
20260506061200 11 0 0.0 0.0 0.00 1.30 0.00 89 1010.3
20260506061100 11 0 0.0 0.0 0.00 1.30 0.00 89 1010.3
20260506061000 11 0 0.0 0.0 0.00 1.30 0.00 88 1010.6
20260506060800 11 0 0.0 0.0 0.00 1.30 0.00 88 1010.4
20260506060600 12 0 0.0 0.0 0.00 1.30 0.00 88 1010.6
20260506060500 12 0 0.0 0.0 0.00 1.30 0.00 88 1010.4
20260506060400 11 0 0.0 0.0 0.00 1.30 0.00 89 1010.4
20260506060300 11 0 0.0 0.0 0.00 1.30 0.00 89 1010.6
20260506051401 8 0 0.0 0.0 0.00 1.30 0.00 94 1010.3
20260506051100 8 0 0.0 0.0 0.00 1.30 0.00 94 1010.4
20260506051000 8 0 0.0 0.0 0.00 1.30 0.00 94 1010.6
20260506050901 8 0 0.0 0.0 0.00 1.30 0.00 94 1010.4
20260506050800 8 0 0.0 0.0 0.00 1.30 0.00 94 1010.5
20260506050700 8 0 0.0 0.0 0.00 1.30 0.00 95 1010.6
20260506050500 8 0 0.0 0.0 0.00 1.30 0.00 95 1010.4
20260506050401 8 0 0.0 0.0 0.00 1.30 0.00 95 1010.6
20260506050201 8 0 0.0 0.0 0.00 1.30 0.00 95 1010.6
20260506045100 8 0 0.0 0.0 0.00 1.30 0.00 95 1010.5
20260506044900 8 0 0.0 0.0 0.00 1.30 0.00 95 1010.5
20260506044800 8 0 0.0 0.0 0.00 1.30 0.00 95 1010.6
20260506044700 8 0 0.0 0.0 0.00 1.30 0.00 95 1010.7
20260506044601 8 0 0.0 0.0 0.00 1.30 0.00 95 1010.7
20260506044501 8 0 0.0 0.0 0.00 1.30 0.00 95 1010.5
20260506044400 8 0 0.0 0.0 0.00 1.30 0.00 95 1010.4
20260506044200 8 0 0.0 0.0 0.00 1.30 0.00 95 1010.6
20260506044000 8 0 0.0 0.0 0.00 1.30 0.00 95 1010.3
20260506043900 8 0 0.0 0.0 0.00 1.30 0.00 95 1010.7
20260506043801 8 0 0.0 0.0 0.00 1.30 0.00 95 1010.5
20260506043701 8 0 0.0 0.0 0.00 1.30 0.00 95 1010.7
20260506043600 8 0 0.0 0.0 0.00 1.30 0.00 95 1010.6
20260506043500 8 0 0.0 0.0 0.00 1.30 0.00 95 1010.5
20260506043400 8 0 0.0 0.0 0.00 1.30 0.00 96 1010.5
20260506043201 8 0 0.0 0.0 0.00 1.30 0.00 96 1010.7
20260506043100 8 0 0.0 0.0 0.00 1.30 0.00 96 1010.7
20260506043002 8 0 0.0 0.0 0.00 1.30 0.00 96 1010.6
20260506042900 8 0 0.0 0.0 0.00 1.30 0.00 96 1010.6
20260506042800 8 0 0.0 0.0 0.00 1.30 0.00 96 1010.5
20260506042700 8 0 0.0 0.0 0.00 1.30 0.00 96 1010.5
20260506042601 8 0 0.0 0.0 0.00 1.30 0.00 96 1010.6
20260506042500 8 0 0.0 0.0 0.00 1.30 0.00 96 1010.4
20260506042400 8 0 0.0 0.0 0.00 1.30 0.00 96 1010.7
20260506042300 8 0 0.0 0.0 0.00 1.30 0.00 96 1010.5
20260506042200 8 0 0.0 0.0 0.00 1.30 0.00 96 1010.6
20260506042101 8 0 0.0 0.0 0.00 1.30 0.00 96 1010.5
20260506042000 8 0 0.0 0.0 0.00 1.30 0.00 96 1010.6
20260506041900 8 0 0.0 0.0 0.00 1.30 0.00 96 1010.5
20260506041800 8 0 0.0 0.0 0.00 1.30 0.00 96 1010.6
20260506041700 8 0 0.0 0.0 0.00 1.30 0.00 96 1010.3
20260506041601 8 0 0.0 0.0 0.00 1.30 0.00 96 1010.6
20260506041502 8 0 0.0 0.0 0.00 1.30 0.00 96 1010.5
20260506041400 8 0 0.0 0.0 0.00 1.30 0.00 96 1010.5
20260506041300 8 0 0.0 0.0 0.00 1.30 0.00 96 1010.3
20260506041200 8 0 0.0 0.0 0.00 1.30 0.00 96 1010.4
20260506041101 8 0 0.0 0.0 0.00 1.30 0.00 96 1010.4
20260506040900 8 0 0.0 0.0 0.00 1.30 0.00 96 1010.4
20260506040800 8 0 0.0 0.0 0.00 1.30 0.00 96 1010.3
20260506040700 8 0 0.0 0.0 0.00 1.30 0.00 96 1010.6
20260506040600 8 0 0.0 0.0 0.00 1.30 0.00 96 1010.8
20260506040400 8 0 0.0 0.0 0.00 1.30 0.00 96 1010.9
20260506040300 8 0 0.0 0.0 0.00 1.30 0.00 96 1010.7
20260506040002 8 0 0.0 0.0 0.00 1.30 0.00 96 1010.8
20260506035900 8 0 0.0 0.0 0.00 1.30 0.00 96 1010.7
20260506035500 8 0 0.0 0.0 0.00 1.30 0.00 96 1010.8
20260506035401 8 0 0.0 0.0 0.00 1.30 0.00 96 1010.8
20260506035200 8 0 0.0 0.0 0.00 1.30 0.00 96 1010.9
20260506035100 8 0 0.0 0.0 0.00 1.30 0.00 96 1010.7
20260506035000 8 0 0.0 0.0 0.00 1.30 0.00 96 1010.9
20260506034901 8 0 0.0 0.0 0.00 1.30 0.00 96 1010.7
20260506034800 8 0 0.0 0.0 0.00 1.30 0.00 96 1010.7
20260506034600 8 0 0.0 0.0 0.00 1.30 0.00 96 1010.8
20260506034400 8 0 0.0 0.0 0.00 1.30 0.00 96 1010.9
20260506034300 8 0 0.0 0.0 0.00 1.30 0.00 96 1010.7
20260506034201 8 0 0.0 0.0 0.00 1.30 0.00 96 1010.8
20260506034100 8 0 0.0 0.0 0.00 1.30 0.00 96 1011.0
20260506034000 8 0 0.0 0.0 0.00 1.30 0.00 96 1010.8
20260506033900 8 0 0.0 0.0 0.00 1.30 0.00 96 1010.9
20260506033701 8 90 0.0 3.2 0.00 1.30 0.00 96 1010.8
20260506033600 8 90 0.0 3.2 0.00 1.30 0.00 96 1011.0
20260506033300 8 90 0.0 3.2 0.00 1.30 0.00 96 1011.0
20260506033201 8 90 0.0 3.2 0.00 1.30 0.00 96 1011.0
20260506033100 8 90 0.0 3.2 0.00 1.30 0.00 96 1010.9
20260506033001 8 90 0.0 3.2 0.00 1.30 0.00 96 1011.0
20260506032901 8 90 0.0 3.2 0.00 1.30 0.00 96 1011.0
20260506032800 8 90 0.0 3.2 0.00 1.30 0.00 96 1011.0
20260506032700 8 0 0.0 0.0 0.00 1.30 0.00 96 1010.8
20260506032600 8 0 0.0 0.0 0.00 1.30 0.00 96 1010.8
20260506032501 8 0 0.0 0.0 0.00 1.30 0.00 96 1011.0
20260506032400 8 0 0.0 0.0 0.00 1.30 0.00 96 1010.7
20260506032300 8 0 0.0 0.0 0.00 1.30 0.00 96 1011.1
20260506032000 8 0 0.0 0.0 0.00 1.30 0.00 96 1010.8
20260506031900 8 0 0.0 0.0 0.00 1.30 0.00 96 1010.9
20260506031801 8 0 0.0 0.0 0.00 1.30 0.00 96 1011.0
20260506031700 8 0 0.0 0.0 0.00 1.30 0.00 96 1011.0
20260506031400 8 0 0.0 0.0 0.00 1.30 0.00 96 1010.8
20260506031200 8 0 0.0 0.0 0.00 1.30 0.00 96 1011.0
20260506031100 8 0 0.0 0.0 0.00 1.30 0.00 96 1010.8
20260506031000 8 0 0.0 0.0 0.00 1.30 0.00 96 1010.7
20260506030900 8 0 0.0 0.0 0.00 1.30 0.00 96 1011.0
20260506030801 8 0 0.0 0.0 0.00 1.30 0.00 96 1010.8
20260506030700 8 0 0.0 0.0 0.00 1.30 0.00 96 1010.9
20260506030500 8 0 0.0 0.0 0.00 1.30 0.00 96 1010.8
20260506030401 8 0 0.0 0.0 0.00 1.30 0.00 96 1010.8
20260506030300 8 0 0.0 0.0 0.00 1.30 0.00 96 1010.9
20260506030200 8 0 0.0 0.0 0.00 1.30 0.00 96 1010.8
20260506030100 8 0 0.0 0.0 0.00 1.30 0.00 96 1010.9
20260506030002 8 0 0.0 0.0 0.00 1.30 0.00 96 1010.9
20260506025801 8 0 0.0 0.0 0.00 1.30 0.00 96 1010.9
20260506025700 8 0 0.0 0.0 0.00 1.30 0.00 96 1011.0
20260506025500 8 0 0.0 0.0 0.00 1.30 0.00 96 1010.8
20260506025400 8 0 0.0 0.0 0.00 1.30 0.00 96 1010.8
20260506025301 8 0 0.0 0.0 0.00 1.30 0.00 96 1011.0
20260506025200 8 0 0.0 0.0 0.00 1.30 0.00 96 1010.9
20260506025000 8 0 0.0 0.0 0.00 1.30 0.00 96 1011.1
20260506024901 8 0 0.0 0.0 0.00 1.30 0.00 96 1011.1
20260506024801 8 0 0.0 0.0 0.00 1.30 0.00 96 1011.1
20260506024700 8 0 0.0 0.0 0.00 1.30 0.00 96 1010.9
20260506024502 8 0 0.0 0.0 0.00 1.30 0.00 96 1011.2
20260506024400 8 0 0.0 0.0 0.00 1.30 0.00 96 1011.0
20260506024301 8 0 0.0 0.0 0.00 1.30 0.00 96 1011.0
20260506024201 8 0 0.0 0.0 0.00 1.30 0.00 96 1011.1
20260506024000 9 0 0.0 0.0 0.00 1.30 0.00 94 1011.1
20260506023800 9 0 0.0 0.0 0.00 1.30 0.00 94 1011.0
20260506023701 9 0 0.0 0.0 0.00 1.30 0.00 94 1011.0
20260506023600 9 0 0.0 0.0 0.00 1.30 0.00 94 1011.0
20260506023500 9 0 0.0 0.0 0.00 1.30 0.00 94 1011.0
20260506023401 9 0 0.0 0.0 0.00 1.30 0.00 94 1011.1
20260506023300 9 0 0.0 0.0 0.00 1.30 0.00 94 1010.9
20260506023200 9 0 0.0 0.0 0.00 1.30 0.00 94 1011.1
20260506023002 9 0 0.0 0.0 0.00 1.30 0.00 94 1011.1
20260506022900 9 0 0.0 0.0 0.00 1.30 0.00 94 1011.2
20260506022800 9 0 0.0 0.0 0.00 1.30 0.00 94 1011.2
20260506022701 9 0 0.0 0.0 0.00 1.30 0.00 94 1011.2
20260506022601 9 0 0.0 0.0 0.00 1.30 0.00 94 1011.1
20260506022400 9 0 0.0 0.0 0.00 1.30 0.00 94 1011.3
20260506022300 9 0 0.0 0.0 0.00 1.30 0.00 94 1011.3
20260506022201 9 0 0.0 0.0 0.00 1.30 0.00 94 1011.3
20260506022101 9 0 0.0 0.0 0.00 1.30 0.00 94 1011.4
20260506022000 9 112 0.0 3.2 0.00 1.30 0.00 94 1011.4
20260506021900 9 112 0.0 3.2 0.00 1.30 0.00 94 1011.4
20260506021800 9 112 0.0 3.2 0.00 1.30 0.00 94 1011.4
20260506021700 9 112 0.0 3.2 0.00 1.30 0.00 94 1011.3
20260506021600 9 112 0.0 3.2 0.00 1.30 0.00 94 1011.5
20260506021502 9 112 0.0 3.2 0.00 1.30 0.00 94 1011.4
20260506021401 9 112 0.0 3.2 0.00 1.30 0.00 94 1011.4
20260506021301 9 112 0.0 3.2 0.00 1.30 0.00 94 1011.3
20260506021200 9 112 0.0 3.2 0.00 1.30 0.00 94 1011.0
20260506021100 9 112 0.0 3.2 0.00 1.30 0.00 94 1011.6
20260506021000 9 112 0.0 3.2 0.00 1.30 0.00 94 1011.6
20260506020901 9 112 0.0 3.2 0.00 1.30 0.00 94 1011.6
20260506020700 9 112 0.0 6.4 0.00 1.30 0.00 94 1011.5
20260506020600 9 112 0.0 6.4 0.00 1.30 0.00 94 1011.4
20260506020400 9 112 0.0 6.4 0.00 1.30 0.00 94 1011.5
20260506020301 9 112 0.0 6.4 0.00 1.30 0.00 94 1011.7
20260506020201 9 114 0.0 6.4 0.00 1.30 0.00 94 1011.6
20260506020101 9 122 0.0 12.9 0.00 1.30 0.00 94 1011.6
20260506015900 9 125 1.6 12.9 0.00 1.30 0.00 94 1011.7
20260506015700 9 128 3.2 12.9 0.00 1.30 0.00 94 1011.6
20260506015600 9 132 3.2 12.9 0.00 1.30 0.00 94 1011.5
20260506015501 9 137 3.2 12.9 0.00 1.30 0.00 94 1011.7
20260506015401 9 143 3.2 12.9 0.00 1.30 0.00 94 1011.6
20260506015200 10 158 1.6 12.9 0.00 1.30 0.00 94 1011.7
20260506015100 10 158 4.8 12.9 0.00 13.34 0.00 94 1011.9
20260506015000 9 0 0.0 0.0 0.00 13.34 0.00 96 1011.6
20260506014901 9 0 0.0 0.0 0.00 13.34 0.00 96 1011.6
20260506014800 9 0 0.0 0.0 0.00 13.34 0.00 96 1011.8
20260506014700 9 0 0.0 0.0 0.00 13.34 0.00 96 1011.8
20260506014502 9 0 0.0 0.0 0.00 13.34 0.00 96 1011.5
20260506014400 9 0 0.0 0.0 0.00 13.34 0.00 96 1011.8
20260506014301 9 0 0.0 0.0 0.00 1.30 0.00 96 1011.7
20260506014201 9 0 0.0 0.0 0.00 1.30 0.00 96 1011.8
20260506014100 9 0 0.0 0.0 0.00 1.30 0.00 96 1011.8
20260506013801 9 0 0.0 0.0 0.00 1.30 0.00 96 1011.7
20260506013701 9 0 0.0 0.0 0.00 1.30 0.00 96 1011.6
20260506013600 9 0 0.0 0.0 0.00 1.30 0.00 96 1011.9
20260506013500 9 0 0.0 0.0 0.00 1.30 0.00 96 1011.6
20260506013400 9 0 0.0 0.0 0.00 1.30 0.00 96 1011.6
20260506013301 9 0 0.0 0.0 0.00 1.30 0.00 96 1011.5
20260506013200 9 0 0.0 0.0 0.00 1.30 0.00 96 1011.4
20260506013100 9 0 0.0 0.0 0.00 1.30 0.00 96 1011.6
20260506012900 9 0 0.0 0.0 0.00 1.30 0.00 96 1011.4
20260506012800 9 0 0.0 0.0 0.00 1.30 0.00 96 1011.7
20260506012700 9 0 0.0 0.0 0.00 1.30 0.00 96 1011.6
20260506012600 9 0 0.0 0.0 0.00 1.30 0.00 96 1011.6
20260506012501 9 0 0.0 0.0 0.00 1.30 0.00 96 1011.5
20260506012400 9 0 0.0 0.0 0.00 1.30 0.00 96 1011.5
20260506012300 9 0 0.0 0.0 0.00 1.30 0.00 96 1011.4
20260506012200 9 0 0.0 0.0 0.00 1.30 0.00 96 1011.6
20260506012101 9 0 0.0 0.0 0.00 1.30 0.00 96 1011.4
20260506012000 9 0 0.0 0.0 0.00 1.30 0.00 96 1011.5
20260506011900 9 0 0.0 0.0 0.00 1.30 0.00 96 1011.5
20260506011800 9 0 0.0 0.0 0.00 1.30 0.00 96 1011.5
20260506011701 9 0 0.0 0.0 0.00 1.30 0.00 96 1011.7
20260506011600 9 0 0.0 0.0 0.00 1.30 0.00 96 1011.5
20260506011502 9 0 0.0 0.0 0.00 1.30 0.00 96 1011.6
20260506011400 9 0 0.0 0.0 0.00 1.30 0.00 96 1011.6
20260506011300 9 0 0.0 0.0 0.00 1.30 0.00 96 1011.4
20260506011100 9 0 0.0 0.0 0.00 1.30 0.00 96 1011.5
20260506011000 9 112 0.0 3.2 0.00 1.30 0.00 96 1011.7
20260506010900 9 112 0.0 3.2 0.00 1.30 0.00 96 1011.5
20260506010801 9 112 0.0 3.2 0.00 1.30 0.00 96 1011.5
20260506010701 9 112 0.0 3.2 0.00 1.30 0.00 96 1011.4
20260506010600 9 112 0.0 3.2 0.00 1.30 0.00 96 1011.6
20260506010400 9 111 0.0 3.2 0.00 1.30 0.00 96 1011.5
20260506010300 9 112 0.0 3.2 0.00 1.30 0.00 96 1011.5
20260506010101 9 112 0.0 3.2 0.00 1.30 0.00 96 1011.6
20260506010003 9 113 0.0 3.2 0.00 1.30 0.00 96 1011.6
20260506005901 9 113 0.0 3.2 0.00 1.30 0.00 96 1011.6
20260506005800 9 113 0.0 3.2 0.00 1.30 0.00 96 1011.6
20260506005700 9 114 0.0 3.2 0.00 1.30 0.00 96 1011.7
20260506005600 9 114 0.0 3.2 0.00 1.30 0.00 96 1011.5
20260506005501 9 114 0.0 3.2 0.00 1.30 0.00 96 1011.3
20260506005401 9 115 0.0 3.2 0.00 1.30 0.00 96 1011.4
20260506005300 9 115 0.0 3.2 0.00 1.30 0.00 96 1011.5
20260506005100 9 118 0.0 3.2 0.00 1.30 0.00 96 1011.6
20260506005001 9 112 0.0 3.2 0.00 1.30 0.00 96 1011.3
20260506004801 9 0 0.0 0.0 0.00 1.30 0.00 97 1011.5
20260506004700 9 0 0.0 0.0 0.00 1.30 0.00 97 1011.5
20260506004600 9 0 0.0 0.0 0.00 1.30 0.00 97 1011.5
20260506004503 9 0 0.0 0.0 0.00 1.30 0.00 97 1011.4
20260506004400 9 0 0.0 0.0 0.00 1.30 0.00 97 1011.6
20260506004200 9 0 0.0 0.0 0.00 1.30 0.00 97 1011.5
20260506004101 9 0 0.0 0.0 0.00 1.30 0.00 97 1011.5
20260506003901 9 0 0.0 0.0 0.00 1.30 0.00 97 1011.6
20260506003800 9 0 0.0 0.0 0.00 1.30 0.00 97 1011.4
20260506003601 9 0 0.0 0.0 0.00 1.30 0.00 97 1011.6
20260506003501 9 0 0.0 0.0 0.00 1.30 0.00 97 1011.7
20260506003401 9 0 0.0 0.0 0.00 1.30 0.00 97 1011.6
20260506003300 9 0 0.0 0.0 0.00 1.30 0.00 97 1011.6
20260506003200 9 0 0.0 0.0 0.00 1.30 0.00 97 1011.5
20260506003101 9 0 0.0 0.0 0.00 1.30 0.00 97 1011.5
20260506002901 9 0 0.0 0.0 0.00 1.30 0.00 97 1011.6
20260506002801 9 0 0.0 0.0 0.00 1.30 0.00 97 1011.8
20260506002701 9 0 0.0 0.0 0.00 1.30 0.00 97 1011.7
20260506002301 9 0 0.0 0.0 0.00 1.30 0.00 96 1011.7
20260506002201 9 0 0.0 0.0 0.00 1.30 0.00 96 1011.8
20260506002100 9 0 0.0 0.0 0.00 1.30 0.00 96 1011.8
20260506002000 9 0 0.0 0.0 0.00 1.30 0.00 96 1011.8
20260506001901 9 0 0.0 0.0 0.00 1.30 0.00 96 1011.8
20260506001801 9 0 0.0 0.0 0.00 1.30 0.00 96 1011.9
20260506001601 9 0 0.0 0.0 0.00 1.30 0.00 96 1012.0
20260506001502 10 0 0.0 0.0 0.00 1.30 0.00 96 1011.8
20260506001401 10 0 0.0 0.0 0.00 1.30 0.00 96 1012.2
20260506001301 10 0 0.0 0.0 0.00 1.30 0.00 96 1012.3
20260506001200 10 0 0.0 0.0 0.00 1.30 0.00 96 1011.8
20260506001100 10 0 0.0 0.0 0.00 1.30 0.00 96 1011.8
20260506001000 10 0 0.0 0.0 0.00 1.30 0.00 97 1012.1
20260506000901 10 0 0.0 0.0 0.00 1.30 0.00 96 1012.0
20260506000701 10 0 0.0 0.0 0.00 1.30 0.00 96 1012.1
20260506000500 10 0 0.0 0.0 0.00 1.30 0.00 96 1012.0
20260506000401 10 0 0.0 0.0 0.00 1.30 0.00 96 1012.0
20260506000302 10 0 0.0 0.0 0.00 1.30 0.00 96 1012.0
20260506000200 10 0 0.0 0.0 0.00 1.30 0.00 96 1012.2
20260506000100 10 0 0.0 0.0 0.00 1.30 0.00 96 1012.2
20260506000002 10 0 0.0 0.0 0.00 1.30 0.00 96 1012.2
20260505235900 10 0 0.0 0.0 0.00 1.30 0.00 96 1012.1
20260505235800 10 0 0.0 0.0 0.00 1.30 0.00 96 1012.1
20260505235700 10 0 0.0 0.0 0.00 1.30 0.00 96 1012.1
20260505235501 10 0 0.0 0.0 0.00 1.30 0.00 96 1012.3
20260505235401 10 0 0.0 0.0 0.00 1.30 0.00 96 1012.1
20260505235300 10 0 0.0 0.0 0.00 1.30 0.00 96 1012.1
20260505235200 10 0 0.0 0.0 0.00 1.30 0.00 96 1012.1
20260505235101 10 0 0.0 0.0 0.00 1.30 0.00 96 1012.1
20260505235001 10 0 0.0 0.0 0.00 1.30 0.00 96 1012.3
20260505234900 10 0 0.0 0.0 0.00 1.30 0.00 96 1012.1
20260505234800 10 0 0.0 0.0 0.00 1.30 0.00 96 1012.1
20260505234701 10 0 0.0 0.0 0.00 1.30 0.00 95 1012.2
20260505234601 10 0 0.0 0.0 0.00 1.30 0.00 95 1012.3
20260505234503 10 0 0.0 0.0 0.00 1.30 0.00 95 1012.2
20260505234401 10 0 0.0 0.0 0.00 1.30 0.00 95 1012.4
20260505234300 10 0 0.0 0.0 0.00 1.30 0.00 95 1012.4
20260505234200 10 0 0.0 0.0 0.00 1.30 0.00 95 1012.1
20260505234101 10 0 0.0 0.0 0.00 1.30 0.00 95 1012.1
20260505234001 10 0 0.0 0.0 0.00 1.30 0.00 95 1012.1
20260505233600 10 0 0.0 0.0 0.00 1.30 0.00 95 1012.3
20260505233501 10 0 0.0 0.0 0.00 1.30 0.00 95 1012.2
20260505233401 10 0 0.0 0.0 0.00 1.30 0.00 95 1012.4
20260505233300 10 0 0.0 0.0 0.00 1.30 0.00 95 1012.4
20260505233200 10 0 0.0 0.0 0.00 1.30 0.00 95 1012.4
20260505233100 10 0 0.0 0.0 0.00 1.30 0.00 95 1012.3
20260505233002 10 0 0.0 0.0 0.00 1.30 0.00 95 1012.3
20260505232900 10 0 0.0 0.0 0.00 1.30 0.00 95 1012.4
20260505232800 10 0 0.0 0.0 0.00 1.30 0.00 95 1012.4
20260505232701 10 0 0.0 0.0 0.00 1.30 0.00 95 1012.4
20260505232501 10 0 0.0 0.0 0.00 1.30 0.00 95 1012.4
20260505232300 10 0 0.0 0.0 0.00 1.30 0.00 95 1012.3
20260505232200 10 0 0.0 0.0 0.00 1.30 0.00 95 1012.4
20260505232101 10 0 0.0 0.0 0.00 1.30 0.00 95 1012.4
20260505231900 10 135 0.0 3.2 0.00 1.30 0.00 95 1012.3
20260505231800 10 135 0.0 3.2 0.00 1.30 0.00 95 1012.6
20260505231700 10 135 0.0 3.2 0.00 1.30 0.00 95 1012.6
20260505231601 10 135 0.0 3.2 0.00 1.30 0.00 95 1012.2
20260505231502 10 135 0.0 3.2 0.00 1.30 0.00 95 1012.3
20260505231400 10 135 0.0 3.2 0.00 1.30 0.00 95 1012.5
20260505231301 10 135 0.0 3.2 0.00 1.30 0.00 95 1012.0
20260505231201 10 135 0.0 3.2 0.00 1.30 0.00 95 1012.2
20260505231000 10 135 0.0 3.2 0.00 1.30 0.00 95 1012.4
20260505230900 10 135 0.0 3.2 0.00 1.30 0.00 95 1012.4
20260505230701 10 0 0.0 0.0 0.00 1.30 0.00 95 1012.5
20260505230601 10 158 0.0 3.2 0.00 1.30 0.00 95 1012.3
20260505230501 10 158 0.0 3.2 0.00 1.30 0.00 95 1012.4
20260505230400 10 158 0.0 3.2 0.00 1.30 0.00 95 1012.4
20260505230301 10 149 0.0 6.4 0.00 1.30 0.00 95 1012.4
20260505230201 10 149 0.0 6.4 0.00 1.30 0.00 95 1012.3
20260505230101 10 150 0.0 6.4 0.00 1.30 0.00 95 1012.4
20260505230002 10 151 0.0 6.4 0.00 1.30 0.00 95 1012.4
20260505225800 10 153 0.0 6.4 0.00 1.30 0.00 95 1012.4
20260505225700 10 154 0.0 6.4 0.00 1.30 0.00 95 1012.4
20260505225601 10 155 1.6 6.4 0.00 1.30 0.00 95 1012.4
20260505225501 10 155 0.0 6.4 0.00 1.30 0.00 95 1012.3
20260505225401 10 155 1.6 6.4 0.00 1.30 0.00 95 1012.3
20260505225300 10 157 0.0 6.4 0.00 1.30 0.00 95 1012.4
20260505225200 10 157 0.0 6.4 0.00 1.30 0.00 95 1012.3
20260505225101 10 157 0.0 6.4 0.00 1.30 0.00 95 1012.3
20260505225001 10 157 1.6 6.4 0.00 1.30 0.00 95 1012.5
20260505224901 10 157 1.6 6.4 0.00 1.30 0.00 95 1012.3
20260505224700 10 158 3.2 11.3 0.00 1.30 0.00 95 1012.3
20260505224600 10 157 3.2 11.3 0.00 1.30 0.00 95 1012.3
20260505224400 10 159 0.0 11.3 0.00 1.30 0.00 95 1012.3
20260505224301 10 156 3.2 11.3 0.00 1.30 0.00 95 1012.2
20260505224201 10 154 0.0 11.3 0.00 1.30 0.00 95 1012.3
20260505224101 10 155 1.6 11.3 0.00 1.30 0.00 95 1012.3
20260505224000 10 155 0.0 11.3 0.00 1.30 0.00 95 1012.3
20260505223801 10 154 0.0 11.3 0.00 1.30 0.00 95 1012.2
20260505223701 10 155 4.8 11.3 0.00 1.30 0.00 95 1012.3
20260505223601 10 149 3.2 11.3 0.00 1.30 0.00 95 1012.4
20260505223500 10 145 3.2 11.3 0.00 1.30 0.00 95 1012.4
20260505223400 10 141 3.2 11.3 0.00 1.30 0.00 95 1012.4
20260505223300 10 137 1.6 11.3 0.00 1.30 0.00 95 1012.3
20260505223201 10 136 1.6 11.3 0.00 1.30 0.00 95 1012.5
20260505223101 10 134 3.2 11.3 0.00 1.30 0.00 95 1012.3
20260505223002 10 135 1.6 11.3 0.00 1.30 0.00 95 1012.3
20260505222901 10 137 3.2 11.3 0.00 1.30 0.00 95 1012.1
20260505222700 10 132 3.2 9.7 0.00 1.30 0.00 95 1012.1
20260505222600 10 138 3.2 9.7 0.00 1.30 0.00 95 1012.3
20260505222501 10 139 1.6 9.7 0.00 1.30 0.00 95 1012.3
20260505222401 10 144 3.2 9.7 0.00 1.30 0.00 95 1012.0
20260505222201 10 146 0.0 9.7 0.00 1.30 0.00 95 1012.2
20260505222000 10 143 1.6 9.7 0.00 1.30 0.00 95 1012.3
20260505221900 10 140 1.6 9.7 0.00 1.30 0.00 95 1012.4
20260505221801 10 140 3.2 9.7 0.00 1.30 0.00 95 1012.5
20260505221601 10 137 0.0 9.7 0.00 1.30 0.00 95 1012.4
20260505221401 10 132 3.2 9.7 0.00 1.30 0.00 95 1012.4
20260505221301 10 138 1.6 6.4 0.00 1.30 0.00 95 1012.2
20260505221200 10 137 3.2 6.4 0.00 1.30 0.00 95 1012.2
20260505221100 10 139 1.6 6.4 0.00 1.30 0.00 95 1012.3
20260505221001 10 137 1.6 6.4 0.00 1.30 0.00 95 1012.2
20260505220901 10 137 1.6 6.4 0.00 1.30 0.00 95 1012.3
20260505220701 10 136 3.2 9.7 0.00 1.30 0.00 95 1012.3
20260505220600 10 133 3.2 9.7 0.00 1.30 0.00 95 1012.4
20260505220500 10 132 3.2 9.7 0.00 1.30 0.00 95 1012.2
20260505220401 10 132 3.2 9.7 0.00 1.30 0.00 95 1012.2
20260505220301 10 127 0.0 9.7 0.00 1.30 0.00 95 1012.4
20260505220101 10 121 3.2 9.7 0.00 1.30 0.00 95 1012.5
20260505220002 11 118 1.6 9.7 0.00 1.30 0.00 95 1012.3
20260505215901 11 113 3.2 9.7 0.00 1.30 1.30 95 1012.4
20260505215701 11 108 3.2 9.7 0.00 1.30 1.30 95 1012.3
20260505215601 11 109 1.6 6.4 0.00 1.30 1.30 95 1012.3
20260505215501 10 112 0.0 6.4 0.00 1.30 1.30 95 1012.0
20260505215301 11 109 1.6 6.4 0.00 1.30 1.30 95 1012.1
20260505215201 11 107 1.6 6.4 0.00 1.30 1.30 95 1012.3
20260505215100 11 110 3.2 6.4 0.00 1.30 1.30 95 1012.3
20260505215000 10 112 0.0 6.4 0.00 1.30 1.30 95 1012.3
20260505214901 10 121 0.0 6.4 0.00 1.30 1.30 95 1012.3
20260505214801 10 126 0.0 6.4 0.00 1.30 1.30 95 1012.2
20260505214701 10 125 0.0 6.4 0.00 1.30 1.30 95 1012.2
20260505214600 11 123 1.6 6.4 0.00 1.30 1.30 95 1012.3
20260505214502 10 127 0.0 6.4 0.00 1.30 1.30 95 1012.5
20260505214400 10 132 0.0 6.4 0.00 1.30 1.30 95 1012.3
20260505214300 11 133 0.0 6.4 0.00 1.30 1.30 95 1012.2
20260505214201 11 133 1.6 6.4 0.00 1.30 1.30 95 1012.1
20260505214101 11 141 1.6 6.4 0.00 1.30 1.30 95 1012.3
20260505214000 11 145 0.0 6.4 0.00 1.30 1.30 95 1012.3
20260505213900 11 140 0.0 6.4 0.00 1.30 1.30 96 1012.3
20260505213800 11 138 0.0 6.4 0.00 1.30 1.30 96 1012.0
20260505213701 11 138 0.0 6.4 0.00 1.30 1.30 96 1012.2
20260505213501 11 135 0.0 6.4 0.00 1.30 1.30 96 1012.3
20260505213400 11 135 1.6 6.4 0.00 1.30 1.30 96 1012.1
20260505213300 11 135 0.0 6.4 0.00 1.30 1.30 96 1012.3
20260505213201 11 135 0.0 6.4 0.00 1.30 1.30 96 1012.3
20260505213101 10 132 0.0 6.4 0.00 1.30 1.30 96 1012.5
20260505213003 11 131 0.0 6.4 0.00 1.30 1.30 96 1012.5
20260505212901 11 130 0.0 6.4 0.00 1.30 1.30 96 1012.4
20260505212801 10 133 0.0 6.4 0.00 1.30 1.30 96 1012.3
20260505212700 10 136 0.0 6.4 0.00 1.30 1.30 96 1012.4
20260505212600 10 136 1.6 6.4 0.00 1.30 1.30 96 1012.5
20260505212301 10 137 0.0 3.2 0.00 1.30 1.30 96 1012.6
20260505212201 10 141 0.0 3.2 0.00 1.30 1.30 96 1012.6
20260505212100 10 149 1.6 3.2 0.00 1.30 1.30 96 1012.3
20260505211901 10 150 0.0 6.4 0.00 1.30 1.30 96 1012.3
20260505211801 10 148 1.6 6.4 0.00 1.30 1.30 96 1012.2
20260505211701 10 148 0.0 6.4 0.00 1.30 1.30 96 1012.3
20260505211600 10 139 0.0 6.4 0.00 1.30 1.30 96 1012.4
20260505211502 10 141 0.0 6.4 0.00 1.30 1.30 96 1012.4
20260505211401 10 141 0.0 6.4 0.00 1.30 1.30 96 1012.3
20260505211300 10 141 0.0 6.4 0.00 1.30 1.30 96 1012.5
20260505211200 10 140 0.0 6.4 0.00 1.30 1.30 96 1012.4
20260505211101 10 137 0.0 6.4 0.00 1.30 1.30 96 1012.4
20260505211001 10 137 0.0 6.4 0.00 1.30 1.30 96 1012.3
20260505210901 10 138 3.2 6.4 0.00 1.30 1.30 96 1012.5
20260505210801 10 136 0.0 6.4 0.00 1.30 1.30 96 1012.5
20260505210700 10 128 1.6 6.4 0.00 1.30 1.30 96 1012.4
20260505210601 10 158 0.0 3.2 0.00 1.30 1.30 96 1012.5
20260505210501 10 0 0.0 0.0 0.00 1.30 1.30 96 1012.3
20260505210401 10 0 0.0 0.0 0.00 1.30 1.30 96 1012.3
20260505210301 10 0 0.0 0.0 0.00 1.30 1.30 96 1012.4
20260505210200 10 0 0.0 0.0 0.00 1.30 1.30 96 1012.3
20260505210100 10 0 0.0 0.0 0.00 1.30 1.30 96 1012.4
20260505205900 10 0 0.0 0.0 0.00 1.30 1.30 96 1012.5
20260505205801 10 0 0.0 0.0 0.00 1.30 1.30 96 1012.3
20260505205501 10 0 0.0 0.0 0.00 1.30 1.30 96 1012.1
20260505205401 10 0 0.0 0.0 0.00 1.30 1.30 96 1012.3
20260505205101 10 0 0.0 0.0 0.00 1.30 1.30 96 1012.1
20260505205000 10 0 0.0 0.0 0.00 1.30 1.30 96 1012.0
20260505204801 10 0 0.0 0.0 0.00 1.30 1.30 96 1012.3
20260505204701 10 0 0.0 0.0 0.00 1.30 1.30 96 1012.3
20260505204601 10 0 0.0 0.0 0.00 1.30 1.30 96 1012.3
20260505204502 10 0 0.0 0.0 0.00 1.30 1.30 96 1012.3
20260505204401 10 0 0.0 0.0 0.00 1.30 1.30 96 1012.2
20260505204200 10 0 0.0 0.0 0.00 1.30 1.30 96 1012.3
20260505204100 11 0 0.0 0.0 0.00 1.30 1.30 96 1012.3
20260505204001 10 0 0.0 0.0 0.00 1.30 1.30 96 1012.1
20260505203701 10 0 0.0 0.0 0.00 1.30 1.30 96 1012.1
20260505203601 10 0 0.0 0.0 0.00 1.30 1.30 96 1012.2
20260505203500 10 0 0.0 0.0 0.00 1.30 1.30 96 1012.2
20260505203401 10 0 0.0 0.0 0.00 1.30 1.30 96 1012.3
20260505203301 10 0 0.0 0.0 0.00 1.30 1.30 96 1012.2
20260505203201 11 0 0.0 0.0 0.00 1.30 1.30 96 1012.0
20260505203101 11 0 0.0 0.0 0.00 1.30 1.30 96 1012.3
20260505203003 11 0 0.0 0.0 0.00 1.30 1.30 96 1012.2
20260505202901 11 0 0.0 0.0 0.00 1.30 1.30 96 1012.1
20260505202801 11 0 0.0 0.0 0.00 1.30 1.30 96 1012.1
20260505202700 11 0 0.0 0.0 0.00 1.30 1.30 95 1012.2
20260505202500 11 0 0.0 0.0 0.00 1.30 1.30 95 1012.2
20260505202401 11 0 0.0 0.0 0.00 1.30 1.30 95 1012.2
20260505202301 11 0 0.0 0.0 0.00 1.30 1.30 95 1012.1
20260505202201 11 0 0.0 0.0 0.00 1.30 1.30 95 1012.0
20260505202000 11 0 0.0 0.0 0.00 1.30 1.30 95 1012.0
20260505201900 11 0 0.0 0.0 0.00 1.30 1.30 95 1012.1
20260505201800 11 0 0.0 0.0 0.00 1.30 1.30 95 1012.1
20260505201502 11 0 0.0 0.0 0.00 1.30 1.30 95 1011.9
20260505201401 11 0 0.0 0.0 0.00 1.30 1.30 95 1011.8
20260505201301 11 0 0.0 0.0 0.00 1.30 1.30 95 1012.0
20260505201201 11 0 0.0 0.0 0.00 1.30 1.30 95 1011.8
20260505201100 11 0 0.0 0.0 0.00 1.30 1.30 95 1012.0
20260505201001 11 0 0.0 0.0 0.00 1.30 1.30 95 1012.1
20260505200901 11 0 0.0 0.0 0.00 1.30 1.30 95 1012.1
20260505200801 11 0 0.0 0.0 0.00 1.30 1.30 95 1012.0
20260505200700 11 0 0.0 0.0 0.00 1.30 1.30 95 1012.1
20260505200500 11 0 0.0 0.0 0.00 1.30 1.30 95 1012.2
20260505200401 11 158 0.0 3.2 0.00 1.30 1.30 95 1012.0
20260505200301 11 158 0.0 6.4 0.00 1.30 1.30 95 1012.2
20260505200201 11 158 0.0 6.4 0.00 1.30 1.30 95 1011.9
20260505200101 11 152 0.0 6.4 0.00 1.30 1.30 95 1011.9
20260505200003 11 153 0.0 6.4 0.00 1.30 1.30 95 1011.9
20260505195901 11 154 0.0 6.4 0.00 1.30 1.30 95 1011.9